CZ-5 R/B, 67227

Orbit data source: Space-Track

CZ-5 R/B, 67227 is space debris in HEO originally from a launch on Sat, 20 Dec 2025 UTC launched from the Wenchang Satellite Launch Center (WSC). Debris objects in space refer to the collection of defunct objects orbiting the Earth. Examples of debris include non-operational satellites, rocket bodies, and fragments generated from explosions, collisions, or faulty payload assembly.

Loading next visibility...
Identifier
67227, 2025-306B
Orbit
HEO
Country
Flag of CNCN / PRC
Related business
Manufacturer
CALT
Mission
Spacecraft
Bus & Motor
CZ-5 H5-2, Unknown motor
Mass
5,100 kg wet, 5,100 kg dry
Launch date (UTC)
2025-12-20 (6 months ago)
Launch vehicle
Unknown
Launch site
Wenchang Satellite Launch Center (WSC)
Object type
Payload
Rocket body
Debris
Shape & HBR
Step Cyl, 8.0 m
Radar Cross Section
46.821 m², Large (>1 m²)

Expand to show TLE details & history
Last TLE update: 1 day ago

TLE from 1 day ago
0 CZ-5 R/B
1 67227U 25306B   26170.63349791  .00000308  00000-0  57501-3 0  9990
2 67227  15.7897 237.7318 7535505 292.3437   7.8644  1.93715187  3525
Epoch: 2026-06-19T15:12Z
TLE epoch observation values (Epoch: 2026-06-19T15:12:14.219Z)
Latitude
0.00124°
Longitude
102.05427°
Altitude
2,813.119 km
Speed
8.489 km/s
True Right ascension
15h 51m 53s
True Declination
0° 00' 04"
Sunlit
Object was in full shadow at epoch
Visualization orbit readout
Latitude
Unknown
Longitude
Unknown
Altitude
Unknown
Speed
Unknown
Apparent Right ascension
Unknown
Apparent Declination
Unknown
Sunlit
N/A
Visualization observer readout
Local Sidereal Time
07:21:09
Azimuth
Unknown
Elevation
Unknown
Doppler factor
Unknown
Orbital elements
Apogee altitude
41,297.035 km
Perigee altitude
322.282 km
Semi-major axis
27,187.795 km
Eccentricity
0.75355
Inclination
15.7897°
RAAN
237.7318°
Arg. of periapsis
292.3437°
True anomaly
68.03378°
Mean anomaly
7.8644°
Eccentric anomaly
28.39881°
Mean motion
0.48415 °/min
Orbital period
743.57 mins
BSTAR
0.00057501
Loading maneuver chart data...
Computing Atmospheric mass density...
Loading historical data...
Loading historical data...
Loading historical data...
Loading historical data...
Loading historical data...
Loading historical data...
Loading historical data...
Other satellites on launch #306 in the year 2025 (2025-12-20 UTC)

Documentation

Showing up to 5 results
|